QPF
0.06 0.05 0.04 0.03 0.02 0.02 0.02 0.03 0.04 0.05 0.04 0.04 0.03 0.03 0.04 0.07 0.10 0.12 0.12 0.10 0.08 0.08 0.06 0.04 0.03 0.03 0.03 0.03 0.02 0.02 0.02 0.04 0.05 0.04 0.04 0.05 0.06 0.05 0.04 0.04 0.03 0.03 0.02
0.07 0.06 0.04 0.03 0.03 0.02 0.02 0.02 0.04 0.05 0.05 0.04 0.04 0.04 0.04 0.06 0.10 0.11 0.12 0.10 0.08 0.07 0.06 0.04 0.03 0.03 0.03 0.03 0.03 0.02 0.02 0.02 0.03 0.03 0.04 0.04 0.05 0.05 0.04 0.04 0.04 0.03 0.03
0.08 0.07 0.05 0.04 0.03 0.03 0.02 0.02 0.03 0.05 0.06 0.05 0.05 0.04 0.04 0.06 0.10 0.12 0.11 0.10 0.08 0.06 0.06 0.05 0.04 0.04 0.04 0.04 0.03 0.03 0.02 0.02 0.02 0.03 0.03 0.04 0.05 0.05 0.05 0.04 0.04 0.03 0.03
0.09 0.08 0.06 0.04 0.03 0.03 0.02 0.02 0.02 0.04 0.06 0.07 0.06 0.05 0.05 0.07 0.08 0.10 0.12 0.10 0.09 0.07 0.06 0.05 0.04 0.03 0.04 0.04 0.04 0.03 0.03 0.03 0.02 0.02 0.03 0.05 0.06 0.07 0.07 0.06 0.05 0.04 0.03
0.10 0.12 0.08 0.05 0.03 0.03 0.02 0.02 0.02 0.04 0.06 0.06 0.08 0.07 0.06 0.09 0.09 0.08 0.10 0.10 0.08 0.08 0.06 0.06 0.04 0.04 0.04 0.04 0.04 0.04 0.04 0.04 0.03 0.03 0.03 0.04 0.06 0.08 0.09 0.07 0.06 0.05 0.04
0.09 0.12 0.12 0.08 0.04 0.03 0.03 0.03 0.04 0.06 0.07 0.06 0.07 0.08 0.07 0.08 0.11 0.10 0.10 0.10 0.09 0.08 0.07 0.06 0.05 0.05 0.05 0.05 0.04 0.03 0.03 0.04 0.04 0.04 0.03 0.03 0.04 0.05 0.07 0.08 0.07 0.07 0.07
0.07 0.09 0.10 0.11 0.08 0.05 0.04 0.06 0.08 0.09 0.07 0.06 0.08 0.11 0.08 0.08 0.10 0.10 0.10 0.11 0.10 0.09 0.07 0.06 0.05 0.04 0.04 0.04 0.03 0.03 0.02 0.02 0.02 0.03 0.03 0.02 0.02 0.03 0.05 0.07 0.07 0.07 0.05
0.07 0.09 0.11 0.13 0.12 0.10 0.10 0.10 0.11 0.11 0.10 0.09 0.11 0.13 0.11 0.10 0.11 0.10 0.11 0.11 0.10 0.09 0.08 0.06 0.05 0.04 0.04 0.03 0.03 0.03 0.02 0.01 0.01 0.01 0.02 0.02 0.02 0.02 0.03 0.05 0.06 0.07 0.07
0.07 0.09 0.11 0.14 0.13 0.13 0.14 0.12 0.11 0.09 0.08 0.08 0.09 0.11 0.12 0.12 0.13 0.12 0.11 0.12 0.12 0.10 0.09 0.07 0.05 0.04 0.04 0.04 0.03 0.03 0.02 0.02 0.01 0.01 0.01 0.02 0.02 0.03 0.03 0.04 0.06 0.07 0.08
0.07 0.08 0.09 0.11 0.12 0.11 0.12 0.11 0.10 0.10 0.09 0.09 0.07 0.08 0.10 0.11 0.12 0.13 0.12 0.12 0.12 0.11 0.10 0.08 0.07 0.05 0.05 0.05 0.04 0.03 0.03 0.02 0.02 0.02 0.01 0.01 0.02 0.03 0.03 0.03 0.04 0.05 0.05
0.07 0.07 0.09 0.09 0.11 0.11 0.08 0.07 0.07 0.08 0.10 0.12 0.09 0.08 0.09 0.09 0.08 0.08 0.09 0.09 0.09 0.09 0.08 0.07 0.06 0.05 0.05 0.05 0.04 0.03 0.02 0.02 0.02 0.02 0.02 0.02 0.02 0.03 0.03 0.02 0.02 0.03 0.03
0.06 0.06 0.07 0.09 0.10 0.13 0.11 0.07 0.07 0.07 0.10 0.14 0.10 0.08 0.08 0.08 0.08 0.07 0.07 0.07 0.07 0.06 0.05 0.04 0.04 0.05 0.04 0.04 0.03 0.03 0.03 0.02 0.02 0.02 0.03 0.03 0.02 0.02 0.03 0.03 0.02 0.02 0.02
0.07 0.07 0.06 0.07 0.09 0.12 0.13 0.11 0.10 0.09 0.10 0.13 0.11 0.09 0.08 0.06 0.07 0.07 0.09 0.08 0.06 0.05 0.04 0.04 0.04 0.04 0.04 0.04 0.04 0.03 0.03 0.02 0.02 0.02 0.02 0.02 0.02 0.01 0.02 0.03 0.03 0.02 0.03
0.06 0.07 0.06 0.06 0.07 0.09 0.11 0.12 0.12 0.12 0.12 0.13 0.11 0.10 0.09 0.07 0.06 0.07 0.09 0.10 0.09 0.07 0.06 0.05 0.05 0.04 0.04 0.04 0.04 0.03 0.03 0.03 0.03 0.02 0.02 0.01 0.01 0.01 0.02 0.02 0.03 0.03 0.03
0.04 0.05 0.06 0.07 0.08 0.09 0.10 0.11 0.11 0.11 0.11 0.12 0.10 0.09 0.10 0.10 0.09 0.08 0.07 0.08 0.09 0.08 0.07 0.06 0.05 0.05 0.05 0.04 0.04 0.04 0.03 0.04 0.04 0.03 0.02 0.02 0.02 0.02 0.02 0.03 0.03 0.03 0.03
0.04 0.05 0.06 0.07 0.07 0.07 0.08 0.10 0.11 0.10 0.08 0.08 0.09 0.08 0.09 0.10 0.11 0.10 0.09 0.08 0.09 0.09 0.09 0.08 0.07 0.06 0.04 0.04 0.04 0.05 0.04 0.04 0.04 0.03 0.03 0.02 0.02 0.02 0.03 0.03 0.03 0.03 0.02
0.04 0.05 0.05 0.06 0.06 0.07 0.07 0.07 0.09 0.09 0.07 0.06 0.07 0.07 0.07 0.08 0.10 0.11 0.10 0.10 0.09 0.09 0.08 0.08 0.08 0.08 0.07 0.06 0.05 0.05 0.05 0.04 0.04 0.04 0.04 0.03 0.02 0.02 0.03 0.03 0.03 0.03 0.03
0.04 0.05 0.05 0.06 0.06 0.06 0.06 0.06 0.06 0.06 0.06 0.05 0.05 0.05 0.05 0.06 0.07 0.09 0.09 0.09 0.09 0.09 0.07 0.06 0.06 0.06 0.06 0.07 0.06 0.06 0.05 0.04 0.04 0.04 0.04 0.04 0.03 0.03 0.03 0.03 0.03 0.03 0.03
0.04 0.04 0.04 0.05 0.05 0.05 0.05 0.04 0.05 0.05 0.05 0.05 0.05 0.05 0.05 0.04 0.04 0.06 0.07 0.08 0.08 0.08 0.08 0.06 0.05 0.05 0.05 0.05 0.05 0.05 0.05 0.05 0.04 0.04 0.04 0.04 0.04 0.04 0.04 0.04 0.04 0.04 0.03
0.05 0.05 0.05 0.04 0.04 0.04 0.04 0.04 0.04 0.04 0.04 0.04 0.05 0.05 0.05 0.04 0.04 0.04 0.05 0.07 0.08 0.07 0.07 0.07 0.06 0.06 0.06 0.05 0.05 0.05 0.05 0.05 0.05 0.05 0.04 0.04 0.04 0.05 0.05 0.04 0.04 0.04 0.04
0.05 0.05 0.04 0.04 0.04 0.04 0.04 0.05 0.04 0.04 0.04 0.04 0.05 0.06 0.05 0.05 0.05 0.04 0.04 0.05 0.06 0.07 0.06 0.06 0.06 0.07 0.07 0.06 0.06 0.06 0.05 0.06 0.05 0.06 0.05 0.05 0.04 0.05 0.05 0.05 0.05 0.05 0.05
0.04 0.04 0.04 0.03 0.03 0.03 0.03 0.04 0.04 0.04 0.04 0.04 0.04 0.05 0.05 0.05 0.05 0.05 0.05 0.05 0.05 0.05 0.06 0.06 0.06 0.06 0.06 0.06 0.06 0.06 0.06 0.06 0.05 0.05 0.06 0.06 0.05 0.05 0.05 0.06 0.06 0.06 0.06
0.03 0.03 0.03 0.03 0.03 0.02 0.02 0.02 0.03 0.03 0.03 0.03 0.03 0.03 0.04 0.04 0.05 0.05 0.05 0.05 0.05 0.05 0.05 0.05 0.05 0.06 0.06 0.06 0.06 0.06 0.06 0.06 0.05 0.05 0.05 0.05 0.05 0.05 0.05 0.06 0.06 0.06 0.06
0.02 0.02 0.02 0.02 0.02 0.02 0.01 0.02 0.02 0.02 0.02 0.02 0.02 0.02 0.03 0.04 0.04 0.04 0.05 0.04 0.04 0.04 0.04 0.05 0.05 0.05 0.05 0.06 0.06 0.06 0.06 0.06 0.06 0.06 0.06 0.06 0.06 0.06 0.06 0.06 0.06 0.06 0.06
0.01 0.01 0.01 0.01 0.01 0.01 0.01 0.01 0.01 0.01 0.01 0.01 0.01 0.02 0.02 0.03 0.03 0.04 0.04 0.04 0.04 0.04 0.04 0.04 0.04 0.04 0.05 0.05 0.05 0.06 0.07 0.06 0.06 0.07 0.07 0.07 0.07 0.07 0.07 0.06 0.06 0.06 0.06
0.01 0.01 0.01 0.01 0.01 0.01 0.01 0.01 0.01 0.01 0.01 0.01 0.01 0.01 0.02 0.02 0.02 0.03 0.03 0.03 0.03 0.03 0.03 0.03 0.03 0.03 0.04 0.04 0.05 0.05 0.05 0.06 0.06 0.06 0.06 0.06 0.06 0.06 0.07 0.06 0.06 0.05 0.05
MSLP
1020.04 1019.97 1019.91 1019.87 1019.87 1019.91 1019.98 1020.10 1020.24 1020.39 1020.55 1020.71 1020.87 1021.03 1021.19 1021.35 1021.52 1021.69 1021.86 1022.04 1022.21 1022.37 1022.52 1022.67 1022.82 1022.97 1023.15 1023.35 1023.60 1023.87 1024.17 1024.48 1024.79 1025.07 1025.31 1025.49 1025.59 1025.63 1025.62 1025.56 1025.48 1025.39 1025.31
1019.72 1019.56 1019.41 1019.30 1019.23 1019.21 1019.24 1019.33 1019.45 1019.61 1019.78 1019.97 1020.16 1020.36 1020.56 1020.77 1021.00 1021.23 1021.48 1021.72 1021.96 1022.18 1022.39 1022.58 1022.76 1022.93 1023.13 1023.34 1023.59 1023.87 1024.19 1024.52 1024.84 1025.14 1025.40 1025.59 1025.70 1025.74 1025.72 1025.66 1025.57 1025.48 1025.40
1019.45 1019.20 1018.97 1018.77 1018.61 1018.52 1018.49 1018.52 1018.60 1018.73 1018.89 1019.07 1019.28 1019.50 1019.74 1020.00 1020.28 1020.58 1020.89 1021.21 1021.52 1021.81 1022.08 1022.32 1022.54 1022.75 1022.96 1023.20 1023.46 1023.77 1024.10 1024.45 1024.80 1025.13 1025.40 1025.61 1025.73 1025.78 1025.76 1025.69 1025.59 1025.49 1025.41
1019.23 1018.90 1018.59 1018.30 1018.05 1017.87 1017.75 1017.71 1017.73 1017.80 1017.92 1018.08 1018.28 1018.50 1018.77 1019.06 1019.39 1019.75 1020.13 1020.52 1020.90 1021.26 1021.59 1021.89 1022.15 1022.40 1022.65 1022.91 1023.19 1023.52 1023.87 1024.24 1024.61 1024.96 1025.26 1025.48 1025.62 1025.68 1025.66 1025.59 1025.50 1025.40 1025.31
1019.04 1018.65 1018.26 1017.89 1017.56 1017.28 1017.07 1016.94 1016.87 1016.87 1016.93 1017.05 1017.21 1017.43 1017.70 1018.01 1018.38 1018.79 1019.22 1019.68 1020.12 1020.55 1020.94 1021.29 1021.61 1021.90 1022.17 1022.46 1022.77 1023.10 1023.47 1023.86 1024.25 1024.61 1024.93 1025.17 1025.32 1025.39 1025.39 1025.33 1025.25 1025.15 1025.07
1018.84 1018.41 1017.97 1017.53 1017.11 1016.74 1016.44 1016.20 1016.05 1015.96 1015.95 1016.00 1016.12 1016.31 1016.57 1016.89 1017.28 1017.73 1018.21 1018.72 1019.22 1019.71 1020.16 1020.56 1020.93 1021.25 1021.56 1021.87 1022.19 1022.54 1022.91 1023.30 1023.70 1024.07 1024.39 1024.64 1024.82 1024.91 1024.93 1024.90 1024.83 1024.76 1024.69
1018.56 1018.11 1017.63 1017.14 1016.66 1016.21 1015.82 1015.49 1015.24 1015.06 1014.97 1014.96 1015.03 1015.18 1015.42 1015.74 1016.14 1016.60 1017.12 1017.67 1018.23 1018.77 1019.27 1019.73 1020.14 1020.50 1020.83 1021.16 1021.49 1021.84 1022.21 1022.60 1022.99 1023.36 1023.68 1023.95 1024.14 1024.26 1024.30 1024.30 1024.27 1024.22 1024.17
1018.16 1017.71 1017.21 1016.68 1016.15 1015.63 1015.16 1014.75 1014.42 1014.16 1013.99 1013.91 1013.93 1014.04 1014.25 1014.56 1014.96 1015.44 1015.98 1016.57 1017.17 1017.76 1018.31 1018.81 1019.26 1019.67 1020.03 1020.38 1020.72 1021.06 1021.43 1021.80 1022.18 1022.53 1022.86 1023.13 1023.34 1023.48 1023.56 1023.60 1023.60 1023.58 1023.55
1017.60 1017.15 1016.65 1016.09 1015.53 1014.96 1014.43 1013.95 1013.55 1013.22 1012.99 1012.85 1012.82 1012.89 1013.07 1013.37 1013.77 1014.26 1014.82 1015.44 1016.07 1016.70 1017.30 1017.85 1018.35 1018.80 1019.19 1019.56 1019.91 1020.26 1020.62 1020.98 1021.34 1021.69 1022.01 1022.28 1022.51 1022.67 1022.79 1022.85 1022.89 1022.90 1022.89
1016.88 1016.44 1015.93 1015.36 1014.77 1014.17 1013.59 1013.06 1012.60 1012.23 1011.94 1011.76 1011.69 1011.73 1011.90 1012.18 1012.58 1013.08 1013.66 1014.30 1014.97 1015.64 1016.29 1016.89 1017.44 1017.93 1018.37 1018.77 1019.14 1019.49 1019.85 1020.20 1020.55 1020.89 1021.21 1021.49 1021.72 1021.91 1022.05 1022.14 1022.20 1022.23 1022.25
1016.03 1015.59 1015.07 1014.49 1013.87 1013.25 1012.64 1012.08 1011.59 1011.17 1010.86 1010.65 1010.56 1010.59 1010.74 1011.02 1011.42 1011.93 1012.53 1013.20 1013.90 1014.62 1015.31 1015.97 1016.57 1017.11 1017.59 1018.03 1018.43 1018.81 1019.17 1019.53 1019.87 1020.21 1020.52 1020.80 1021.05 1021.24 1021.40 1021.51 1021.59 1021.63 1021.65
1015.11 1014.64 1014.10 1013.50 1012.87 1012.23 1011.61 1011.04 1010.52 1010.10 1009.77 1009.55 1009.46 1009.49 1009.64 1009.93 1010.34 1010.87 1011.49 1012.18 1012.92 1013.67 1014.41 1015.12 1015.78 1016.37 1016.91 1017.38 1017.82 1018.23 1018.61 1018.98 1019.33 1019.67 1019.98 1020.26 1020.51 1020.71 1020.87 1020.99 1021.06 1021.10 1021.11
1014.15 1013.65 1013.08 1012.46 1011.82 1011.17 1010.55 1009.97 1009.46 1009.04 1008.72 1008.52 1008.43 1008.48 1008.66 1008.96 1009.40 1009.94 1010.59 1011.31 1012.08 1012.87 1013.65 1014.40 1015.10 1015.75 1016.33 1016.86 1017.34 1017.77 1018.18 1018.56 1018.93 1019.27 1019.58 1019.86 1020.11 1020.31 1020.46 1020.57 1020.63 1020.66 1020.64
1013.20 1012.65 1012.05 1011.41 1010.76 1010.12 1009.51 1008.95 1008.47 1008.07 1007.78 1007.61 1007.56 1007.63 1007.84 1008.18 1008.64 1009.22 1009.89 1010.63 1011.43 1012.25 1013.06 1013.85 1014.59 1015.27 1015.90 1016.46 1016.97 1017.44 1017.87 1018.27 1018.64 1018.99 1019.30 1019.58 1019.81 1020.00 1020.14 1020.23 1020.27 1020.27 1020.22
1012.28 1011.67 1011.04 1010.40 1009.75 1009.13 1008.55 1008.04 1007.60 1007.25 1007.01 1006.89 1006.88 1007.01 1007.26 1007.64 1008.13 1008.74 1009.43 1010.20 1011.02 1011.85 1012.68 1013.49 1014.25 1014.96 1015.60 1016.19 1016.72 1017.21 1017.66 1018.07 1018.45 1018.79 1019.10 1019.37 1019.59 1019.76 1019.87 1019.94 1019.95 1019.91 1019.83
1011.37 1010.72 1010.08 1009.44 1008.83 1008.25 1007.73 1007.28 1006.91 1006.64 1006.47 1006.41 1006.47 1006.66 1006.96 1007.38 1007.91 1008.55 1009.26 1010.04 1010.86 1011.70 1012.53 1013.34 1014.09 1014.80 1015.45 1016.04 1016.58 1017.06 1017.51 1017.93 1018.30 1018.64 1018.94 1019.19 1019.39 1019.53 1019.62 1019.65 1019.62 1019.55 1019.43
1010.45 1009.79 1009.16 1008.56 1008.01 1007.51 1007.08 1006.72 1006.45 1006.27 1006.19 1006.21 1006.35 1006.60 1006.96 1007.42 1007.99 1008.65 1009.38 1010.16 1010.97 1011.80 1012.61 1013.38 1014.12 1014.80 1015.42 1015.99 1016.51 1016.98 1017.41 1017.81 1018.17 1018.50 1018.78 1019.01 1019.18 1019.29 1019.34 1019.34 1019.27 1019.15 1018.99
1009.50 1008.87 1008.29 1007.77 1007.32 1006.93 1006.62 1006.39 1006.23 1006.16 1006.18 1006.30 1006.51 1006.83 1007.25 1007.76 1008.36 1009.03 1009.76 1010.53 1011.32 1012.11 1012.87 1013.60 1014.29 1014.92 1015.49 1016.02 1016.49 1016.93 1017.33 1017.70 1018.03 1018.33 1018.58 1018.78 1018.93 1019.01 1019.02 1018.97 1018.87 1018.70 1018.50
1008.55 1007.97 1007.49 1007.09 1006.77 1006.53 1006.37 1006.28 1006.26 1006.32 1006.45 1006.66 1006.96 1007.34 1007.81 1008.36 1008.97 1009.65 1010.37 1011.11 1011.86 1012.60 1013.30 1013.96 1014.58 1015.13 1015.64 1016.09 1016.51 1016.90 1017.25 1017.57 1017.87 1018.13 1018.35 1018.51 1018.62 1018.66 1018.64 1018.54 1018.39 1018.18 1017.93
1007.61 1007.15 1006.80 1006.56 1006.41 1006.34 1006.35 1006.42 1006.55 1006.73 1006.98 1007.29 1007.66 1008.10 1008.61 1009.18 1009.80 1010.46 1011.15 1011.85 1012.55 1013.21 1013.84 1014.41 1014.94 1015.41 1015.83 1016.20 1016.54 1016.86 1017.15 1017.42 1017.66 1017.88 1018.05 1018.18 1018.24 1018.24 1018.17 1018.03 1017.83 1017.57 1017.27
1006.79 1006.47 1006.29 1006.23 1006.26 1006.39 1006.57 1006.80 1007.08 1007.39 1007.74 1008.13 1008.57 1009.05 1009.59 1010.16 1010.77 1011.41 1012.06 1012.70 1013.32 1013.90 1014.43 1014.91 1015.33 1015.70 1016.02 1016.30 1016.56 1016.79 1017.01 1017.22 1017.41 1017.57 1017.69 1017.76 1017.78 1017.73 1017.61 1017.42 1017.17 1016.86 1016.50
1006.17 1006.02 1006.03 1006.16 1006.39 1006.70 1007.05 1007.43 1007.84 1008.26 1008.70 1009.16 1009.64 1010.14 1010.68 1011.25 1011.83 1012.42 1013.01 1013.58 1014.12 1014.60 1015.03 1015.40 1015.72 1015.98 1016.19 1016.38 1016.54 1016.68 1016.82 1016.96 1017.08 1017.18 1017.24 1017.26 1017.22 1017.12 1016.94 1016.70 1016.39 1016.03 1015.62
1005.88 1005.92 1006.11 1006.42 1006.83 1007.29 1007.79 1008.30 1008.81 1009.31 1009.80 1010.30 1010.80 1011.31 1011.83 1012.37 1012.91 1013.44 1013.96 1014.44 1014.88 1015.27 1015.59 1015.85 1016.04 1016.19 1016.30 1016.38 1016.45 1016.50 1016.56 1016.62 1016.67 1016.70 1016.70 1016.66 1016.56 1016.39 1016.16 1015.87 1015.51 1015.10 1014.64
1006.00 1006.21 1006.57 1007.04 1007.58 1008.17 1008.77 1009.35 1009.92 1010.47 1010.99 1011.49 1011.98 1012.47 1012.96 1013.45 1013.93 1014.39 1014.83 1015.22 1015.56 1015.84 1016.05 1016.19 1016.28 1016.32 1016.32 1016.30 1016.27 1016.23 1016.21 1016.18 1016.16 1016.12 1016.05 1015.94 1015.78 1015.56 1015.28 1014.93 1014.53 1014.07 1013.58
1006.57 1006.93 1007.41 1007.99 1008.62 1009.28 1009.93 1010.55 1011.13 1011.68 1012.19 1012.67 1013.13 1013.57 1014.01 1014.43 1014.84 1015.23 1015.57 1015.87 1016.11 1016.28 1016.38 1016.42 1016.39 1016.33 1016.22 1016.11 1015.98 1015.86 1015.75 1015.65 1015.55 1015.44 1015.30 1015.13 1014.91 1014.63 1014.30 1013.91 1013.47 1013.00 1012.49
1007.57 1008.03 1008.60 1009.23 1009.90 1010.56 1011.21 1011.81 1012.36 1012.87 1013.33 1013.76 1014.16 1014.54 1014.91 1015.26 1015.59 1015.89 1016.15 1016.35 1016.49 1016.56 1016.56 1016.50 1016.37 1016.21 1016.01 1015.80 1015.59 1015.39 1015.20 1015.02 1014.85 1014.67 1014.47 1014.24 1013.96 1013.64 1013.27 1012.86 1012.40 1011.91 1011.40
Thickness
5440 5444 5448 5452 5456 5459 5462 5466 5470 5474 5479 5483 5488 5492 5497 5501 5505 5510 5514 5517 5520 5522 5524 5527 5529 5531 5532 5534 5536 5538 5539 5541 5540 5541 5541 5542 5544 5545 5547 5549 5550 5551 5552
5430 5434 5439 5442 5446 5450 5454 5457 5461 5465 5469 5473 5477 5481 5487 5491 5495 5500 5504 5508 5511 5514 5515 5517 5519 5521 5523 5525 5526 5528 5529 5531 5532 5531 5531 5532 5534 5535 5537 5539 5540 5541 5542
5420 5425 5428 5432 5437 5441 5446 5449 5452 5456 5459 5463 5467 5472 5477 5481 5486 5490 5495 5498 5502 5505 5507 5508 5510 5512 5514 5515 5517 5518 5519 5521 5522 5522 5521 5522 5524 5525 5526 5528 5529 5530 5532
5410 5414 5419 5423 5428 5433 5437 5441 5444 5447 5450 5454 5458 5462 5467 5472 5476 5481 5485 5488 5492 5495 5497 5500 5501 5504 5506 5507 5508 5509 5510 5511 5511 5512 5512 5512 5513 5514 5515 5516 5518 5519 5521
5400 5404 5409 5414 5419 5424 5428 5432 5435 5438 5442 5445 5449 5453 5458 5462 5467 5471 5475 5479 5482 5485 5487 5490 5492 5494 5496 5498 5499 5500 5501 5502 5502 5502 5502 5502 5502 5503 5505 5507 5508 5508 5510
5389 5394 5400 5404 5410 5414 5419 5423 5427 5430 5433 5436 5440 5444 5448 5453 5459 5462 5465 5469 5472 5475 5478 5480 5482 5484 5486 5488 5490 5491 5493 5494 5494 5494 5494 5494 5495 5496 5496 5496 5496 5496 5498
5379 5385 5390 5396 5401 5405 5410 5414 5418 5421 5424 5427 5431 5435 5439 5444 5448 5452 5455 5458 5462 5466 5468 5470 5473 5475 5477 5477 5479 5479 5481 5484 5486 5487 5486 5487 5487 5488 5487 5487 5486 5486 5488
5369 5374 5380 5386 5392 5397 5402 5406 5409 5413 5416 5419 5422 5427 5430 5435 5439 5442 5445 5448 5451 5455 5458 5461 5463 5465 5467 5468 5468 5468 5470 5472 5475 5477 5479 5480 5480 5479 5479 5479 5478 5475 5476
5359 5364 5369 5376 5382 5389 5393 5397 5401 5404 5407 5410 5413 5418 5422 5426 5429 5432 5435 5438 5441 5445 5448 5451 5453 5455 5458 5458 5458 5458 5460 5461 5462 5464 5466 5468 5468 5469 5469 5466 5464 5464 5465
5346 5353 5360 5365 5373 5379 5384 5389 5392 5396 5399 5402 5406 5409 5413 5417 5420 5424 5426 5430 5432 5435 5437 5440 5442 5444 5446 5446 5447 5448 5450 5451 5451 5452 5453 5455 5456 5457 5458 5458 5457 5455 5456
5338 5345 5351 5357 5363 5370 5375 5380 5384 5388 5391 5394 5398 5401 5404 5409 5412 5416 5419 5422 5425 5426 5427 5429 5431 5433 5434 5435 5437 5439 5441 5441 5440 5440 5441 5442 5443 5445 5446 5447 5447 5448 5447
5331 5337 5343 5350 5356 5362 5366 5371 5375 5379 5383 5386 5390 5394 5398 5401 5403 5407 5411 5414 5417 5418 5419 5421 5422 5423 5424 5425 5426 5429 5429 5428 5427 5428 5429 5430 5432 5434 5435 5435 5435 5435 5436
5323 5329 5335 5342 5348 5352 5356 5361 5366 5370 5374 5379 5383 5387 5389 5392 5395 5398 5402 5406 5408 5409 5410 5411 5412 5412 5413 5413 5415 5417 5417 5416 5417 5417 5418 5421 5422 5423 5423 5422 5422 5422 5423
5315 5321 5327 5333 5339 5343 5347 5352 5356 5360 5365 5369 5373 5377 5380 5382 5385 5387 5390 5393 5396 5398 5399 5399 5400 5400 5401 5403 5404 5404 5405 5406 5407 5408 5409 5410 5410 5410 5410 5410 5410 5410 5410
5307 5313 5319 5324 5329 5334 5337 5341 5346 5350 5354 5358 5362 5366 5369 5373 5376 5379 5381 5384 5387 5389 5389 5388 5387 5388 5390 5391 5392 5394 5394 5394 5395 5397 5397 5397 5398 5399 5399 5399 5399 5399 5399
5299 5304 5309 5314 5319 5324 5328 5332 5336 5340 5345 5349 5352 5355 5359 5363 5367 5370 5372 5375 5377 5378 5378 5377 5378 5380 5381 5383 5383 5384 5384 5384 5385 5386 5386 5387 5387 5388 5387 5387 5387 5388 5388
5290 5295 5300 5305 5309 5313 5318 5323 5327 5331 5335 5338 5342 5346 5350 5354 5357 5360 5364 5367 5367 5368 5368 5368 5369 5370 5372 5372 5373 5373 5373 5374 5375 5375 5376 5376 5376 5376 5376 5376 5375 5376 5376
5281 5286 5291 5295 5299 5304 5308 5312 5316 5320 5324 5327 5330 5335 5339 5342 5346 5349 5352 5354 5355 5356 5357 5358 5359 5360 5361 5361 5362 5363 5363 5363 5363 5365 5365 5365 5365 5365 5364 5364 5364 5364 5364
5274 5278 5282 5286 5290 5294 5298 5302 5306 5309 5312 5315 5319 5322 5326 5330 5333 5335 5338 5340 5341 5343 5345 5347 5348 5349 5350 5350 5351 5352 5352 5353 5354 5354 5355 5354 5354 5354 5353 5353 5352 5352 5352
5267 5271 5276 5278 5282 5285 5288 5291 5295 5298 5301 5303 5305 5309 5312 5317 5319 5320 5322 5325 5327 5330 5332 5334 5336 5337 5338 5339 5341 5341 5342 5342 5343 5344 5344 5344 5344 5344 5344 5343 5342 5341 5341
5259 5263 5267 5270 5272 5275 5278 5280 5283 5286 5288 5290 5292 5296 5300 5302 5304 5306 5309 5311 5313 5316 5318 5320 5322 5324 5326 5328 5329 5330 5331 5332 5332 5332 5333 5333 5333 5333 5333 5332 5331 5331 5330
5251 5254 5257 5260 5263 5265 5267 5270 5271 5274 5276 5278 5281 5284 5288 5290 5291 5293 5296 5298 5300 5302 5305 5307 5309 5311 5313 5315 5317 5318 5319 5320 5321 5321 5322 5322 5322 5322 5322 5322 5321 5320 5319
5243 5245 5247 5250 5252 5255 5257 5258 5260 5262 5264 5267 5269 5272 5275 5277 5279 5281 5283 5285 5288 5290 5292 5294 5296 5298 5300 5302 5304 5305 5307 5308 5309 5310 5311 5311 5311 5311 5312 5312 5311 5310 5310
5234 5236 5237 5239 5241 5243 5245 5247 5248 5251 5253 5255 5258 5260 5262 5264 5266 5269 5270 5273 5276 5277 5279 5281 5283 5286 5288 5290 5291 5293 5294 5297 5298 5299 5300 5300 5300 5301 5301 5301 5300 5300 5299
5225 5226 5228 5229 5231 5232 5234 5236 5237 5239 5242 5244 5246 5248 5250 5252 5254 5257 5259 5261 5264 5266 5268 5270 5272 5274 5276 5278 5279 5281 5284 5286 5287 5288 5289 5290 5290 5290 5290 5290 5289 5289 5289
5215 5216 5217 5219 5220 5222 5223 5225 5226 5228 5230 5232 5234 5236 5238 5240 5243 5246 5248 5250 5253 5255 5257 5259 5260 5262 5265 5266 5268 5270 5273 5275 5276 5277 5278 5279 5279 5279 5280 5279 5279 5278 5278